Total_Precipitation_Accumulation
0.00 0.00 0.00 0.00 0.00 0.00 0.00 0.00 0.00 0.00 0.00 0.00 0.00 0.00 0.00 0.00 0.00 0.00 0.00 0.00 0.00 0.00 0.00 0.01 0.02 0.03 0.05 0.08 0.10 0.11 0.11 0.11 0.12 0.12 0.13 0.13 0.13 0.13 0.14 0.15 0.16 0.17 0.18
0.00 0.00 0.00 0.00 0.00 0.00 0.00 0.00 0.00 0.00 0.00 0.00 0.00 0.00 0.00 0.00 0.00 0.00 0.00 0.00 0.00 0.00 0.00 0.00 0.01 0.02 0.05 0.07 0.10 0.12 0.12 0.13 0.13 0.13 0.14 0.14 0.15 0.15 0.15 0.16 0.17 0.18 0.19
0.00 0.00 0.00 0.00 0.00 0.00 0.00 0.00 0.00 0.00 0.00 0.00 0.00 0.00 0.00 0.00 0.00 0.00 0.00 0.00 0.00 0.00 0.00 0.00 0.01 0.01 0.02 0.04 0.06 0.09 0.11 0.13 0.15 0.16 0.17 0.18 0.18 0.18 0.18 0.19 0.20 0.21 0.21
0.01 0.01 0.00 0.00 0.00 0.00 0.00 0.00 0.00 0.00 0.00 0.00 0.00 0.00 0.00 0.00 0.00 0.00 0.00 0.00 0.00 0.00 0.00 0.00 0.01 0.01 0.01 0.01 0.03 0.05 0.07 0.10 0.12 0.14 0.16 0.19 0.21 0.22 0.24 0.26 0.26 0.27 0.27
0.02 0.01 0.01 0.00 0.00 0.00 0.00 0.00 0.00 0.00 0.00 0.00 0.00 0.00 0.00 0.00 0.00 0.00 0.00 0.00 0.00 0.00 0.00 0.00 0.00 0.00 0.00 0.01 0.01 0.03 0.05 0.08 0.09 0.10 0.12 0.14 0.17 0.20 0.23 0.27 0.31 0.33 0.36
0.04 0.03 0.02 0.01 0.00 0.00 0.00 0.00 0.00 0.00 0.00 0.00 0.00 0.00 0.00 0.00 0.00 0.00 0.00 0.00 0.00 0.00 0.00 0.00 0.00 0.00 0.00 0.01 0.01 0.02 0.03 0.05 0.07 0.08 0.10 0.12 0.14 0.17 0.20 0.24 0.28 0.33 0.40
0.06 0.04 0.02 0.01 0.00 0.00 0.00 0.00 0.00 0.00 0.00 0.00 0.00 0.01 0.00 0.00 0.00 0.00 0.00 0.00 0.00 0.00 0.00 0.00 0.00 0.00 0.01 0.01 0.01 0.01 0.02 0.02 0.04 0.07 0.09 0.11 0.14 0.18 0.21 0.24 0.28 0.33 0.39
0.07 0.04 0.02 0.01 0.01 0.00 0.00 0.00 0.00 0.00 0.01 0.00 0.01 0.03 0.02 0.00 0.00 0.00 0.00 0.00 0.00 0.00 0.00 0.00 0.00 0.00 0.01 0.01 0.01 0.01 0.01 0.01 0.02 0.07 0.12 0.16 0.19 0.22 0.25 0.29 0.33 0.35 0.38
0.07 0.06 0.04 0.02 0.01 0.00 0.00 0.00 0.00 0.01 0.02 0.01 0.01 0.04 0.05 0.04 0.02 0.01 0.00 0.00 0.00 0.00 0.00 0.00 0.00 0.00 0.00 0.00 0.00 0.00 0.01 0.02 0.03 0.04 0.10 0.17 0.23 0.28 0.32 0.36 0.39 0.43 0.47
0.06 0.05 0.05 0.03 0.02 0.01 0.01 0.01 0.01 0.02 0.03 0.03 0.02 0.03 0.06 0.07 0.09 0.06 0.02 0.00 0.00 0.00 0.00 0.00 0.00 0.00 0.00 0.00 0.00 0.01 0.02 0.04 0.06 0.06 0.10 0.21 0.31 0.39 0.47 0.53 0.58 0.63 0.64
0.04 0.04 0.03 0.02 0.02 0.01 0.02 0.03 0.03 0.04 0.05 0.06 0.06 0.06 0.07 0.08 0.10 0.11 0.06 0.02 0.01 0.00 0.00 0.00 0.00 0.00 0.00 0.00 0.01 0.02 0.04 0.06 0.08 0.11 0.19 0.31 0.41 0.54 0.67 0.77 0.84 0.86 0.84
0.04 0.03 0.02 0.02 0.01 0.01 0.02 0.03 0.04 0.06 0.07 0.09 0.11 0.11 0.12 0.12 0.10 0.11 0.08 0.04 0.03 0.01 0.01 0.00 0.00 0.00 0.00 0.01 0.01 0.02 0.03 0.04 0.07 0.12 0.23 0.36 0.46 0.58 0.70 0.83 0.92 0.96 0.99
0.04 0.03 0.02 0.01 0.01 0.01 0.01 0.02 0.04 0.06 0.09 0.12 0.14 0.15 0.16 0.15 0.15 0.16 0.16 0.11 0.07 0.03 0.02 0.01 0.00 0.00 0.01 0.02 0.02 0.02 0.02 0.02 0.05 0.08 0.15 0.30 0.39 0.42 0.47 0.57 0.73 0.84 0.94
0.04 0.03 0.02 0.01 0.01 0.01 0.01 0.02 0.05 0.06 0.09 0.11 0.13 0.14 0.16 0.14 0.16 0.17 0.19 0.20 0.14 0.05 0.02 0.01 0.00 0.01 0.02 0.02 0.02 0.02 0.01 0.01 0.02 0.05 0.09 0.14 0.20 0.25 0.30 0.36 0.45 0.56 0.66
0.02 0.02 0.01 0.01 0.00 0.00 0.00 0.01 0.02 0.03 0.04 0.06 0.08 0.10 0.12 0.12 0.13 0.13 0.16 0.23 0.26 0.17 0.06 0.03 0.02 0.01 0.02 0.02 0.02 0.04 0.03 0.03 0.04 0.06 0.08 0.10 0.12 0.16 0.20 0.25 0.32 0.40 0.47
0.01 0.01 0.00 0.00 0.00 0.00 0.00 0.00 0.00 0.01 0.01 0.02 0.04 0.07 0.09 0.10 0.11 0.13 0.13 0.15 0.22 0.26 0.15 0.04 0.04 0.03 0.05 0.04 0.04 0.07 0.07 0.07 0.09 0.10 0.11 0.13 0.15 0.17 0.20 0.24 0.30 0.35 0.40
0.01 0.00 0.00 0.00 0.00 0.00 0.00 0.00 0.00 0.00 0.00 0.01 0.03 0.05 0.07 0.09 0.11 0.11 0.12 0.13 0.15 0.21 0.20 0.07 0.05 0.06 0.07 0.05 0.04 0.09 0.09 0.09 0.09 0.12 0.16 0.19 0.23 0.25 0.27 0.29 0.31 0.33 0.36
0.00 0.00 0.00 0.00 0.00 0.00 0.00 0.00 0.00 0.00 0.00 0.00 0.01 0.02 0.04 0.06 0.08 0.11 0.13 0.13 0.13 0.16 0.23 0.17 0.06 0.05 0.06 0.07 0.08 0.10 0.12 0.14 0.13 0.14 0.19 0.25 0.31 0.34 0.33 0.32 0.32 0.33 0.34
0.00 0.00 0.00 0.00 0.00 0.00 0.00 0.00 0.00 0.00 0.00 0.00 0.01 0.01 0.01 0.02 0.02 0.05 0.08 0.11 0.13 0.17 0.26 0.30 0.17 0.12 0.12 0.11 0.13 0.12 0.13 0.16 0.15 0.16 0.20 0.23 0.26 0.30 0.32 0.34 0.35 0.35 0.35
0.00 0.00 0.00 0.00 0.00 0.00 0.00 0.00 0.00 0.00 0.00 0.00 0.00 0.01 0.01 0.01 0.02 0.03 0.06 0.10 0.17 0.21 0.25 0.31 0.28 0.21 0.18 0.14 0.16 0.15 0.16 0.15 0.17 0.20 0.22 0.24 0.26 0.28 0.29 0.30 0.30 0.30 0.30
0.00 0.00 0.00 0.00 0.00 0.00 0.00 0.00 0.00 0.00 0.00 0.00 0.00 0.00 0.00 0.00 0.01 0.04 0.09 0.13 0.18 0.23 0.32 0.40 0.39 0.30 0.23 0.21 0.19 0.20 0.25 0.24 0.23 0.21 0.23 0.23 0.27 0.32 0.34 0.38 0.39 0.39 0.39
0.00 0.00 0.00 0.00 0.00 0.00 0.00 0.00 0.00 0.00 0.00 0.00 0.00 0.00 0.00 0.00 0.01 0.05 0.09 0.13 0.21 0.31 0.40 0.47 0.45 0.38 0.28 0.28 0.31 0.39 0.45 0.50 0.43 0.27 0.33 0.39 0.44 0.51 0.52 0.53 0.58 0.60 0.60
0.00 0.00 0.00 0.00 0.00 0.00 0.00 0.00 0.00 0.00 0.00 0.00 0.00 0.00 0.00 0.01 0.03 0.04 0.05 0.10 0.15 0.24 0.33 0.37 0.34 0.24 0.23 0.24 0.37 0.47 0.51 0.55 0.50 0.38 0.45 0.52 0.49 0.51 0.51 0.54 0.62 0.62 0.58
0.00 0.00 0.00 0.00 0.00 0.00 0.00 0.00 0.00 0.00 0.00 0.00 0.00 0.00 0.01 0.02 0.03 0.07 0.14 0.18 0.13 0.09 0.11 0.13 0.13 0.14 0.19 0.24 0.37 0.52 0.60 0.64 0.52 0.42 0.41 0.48 0.41 0.39 0.38 0.40 0.47 0.49 0.46
0.00 0.00 0.00 0.00 0.00 0.00 0.00 0.00 0.00 0.00 0.00 0.00 0.00 0.01 0.03 0.03 0.05 0.16 0.25 0.25 0.14 0.04 0.04 0.07 0.12 0.14 0.15 0.19 0.26 0.48 0.67 0.76 0.62 0.37 0.31 0.38 0.38 0.38 0.36 0.33 0.36 0.42 0.42
0.00 0.00 0.00 0.00 0.00 0.00 0.00 0.00 0.01 0.01 0.01 0.02 0.02 0.01 0.02 0.05 0.11 0.23 0.25 0.22 0.12 0.05 0.08 0.07 0.06 0.05 0.04 0.06 0.16 0.36 0.74 1.07 0.85 0.54 0.32 0.41 0.45 0.51 0.59 0.36 0.31 0.35 0.35